Showing default

LEMUR-2 HCS-BAZUS, 67388

Orbit data source: Space-Track

LEMUR-2 HCS-BAZUS, 67388 is a payload satellite owned by Spire/Lux (US) in SSO that was launched on Sun, 11 Jan 2026 UTC via an FALCON 9 launch vehicle from the Air Force Western Test Range (AFWTR). Payload-class satellites include a variety of spacecraft equipped with specific instruments for various scientific and technological missions. These include communications satellites like Starlink; space stations such as the ISS; scientific satellites like the Hubble; Earth observation satellites from companies like Planet Labs, Umbra, and HawkEye 360; GPS; miniature CubeSats for education and research; and military/defense satellites.

Loading next visibility...
Identifier
67388, 2026-004AB
Orbit
SSO
Country
Flag of USUS
Related business
Manufacturer
Spire/Glasgow
Mission
Operational Commercial Com/MetRO
Bus & Motor
CUBESAT 3U, Unknown motor
Mass
4.6 kg wet, 4.6 kg dry
Launch date (UTC)
2026-01-11 (8 months ago)
Launch vehicle
FALCON 9
Launch site
Air Force Western Test Range (AFWTR)
Object type
Payload
Rocket body
Debris
Shape & HBR
Box + 2 Pan, 0.3 m
Radar Cross Section
0.054 m², Medium (>0.1 m² and < 1m²)

Expand to show TLE details & history
Last TLE update: 17 hours ago

TLE from 17 hours ago
0 LEMUR-2 HCS-BAZUS
1 67388U 26004AB  26264.09371556  .00002664  00000-0  27719-3 0  9997
2 67388  97.8090 261.9522 0004023 112.8156 247.3487 14.90699645 37599
Epoch: 2026-09-21T02:14Z
TLE epoch observation values (Epoch: 2026-09-21T02:14:57.024Z)
Latitude
-0.00005°
Longitude
-131.76388°
Altitude
599.873 km
Speed
7.559 km/s
True Right ascension
17h 27m 48s
True Declination
0° 00' 00"
Sunlit
Object was in daylight at epoch
Visualization orbit readout
Latitude
Unknown
Longitude
Unknown
Altitude
Unknown
Speed
Unknown
Apparent Right ascension
Unknown
Apparent Declination
Unknown
Sunlit
N/A
Visualization observer readout
Local Sidereal Time
12:35:35
Azimuth
Unknown
Elevation
Unknown
Doppler factor
Unknown
Orbital elements
Apogee altitude
595.58 km
Perigee altitude
589.971 km
Semi-major axis
6,970.912 km
Eccentricity
0.0004
Inclination
97.809°
RAAN
261.9522°
Arg. of periapsis
112.8156°
True anomaly
247.30616°
Mean anomaly
247.3487°
Eccentric anomaly
247.32743°
Mean motion
3.72914 °/min
Orbital period
96.54 mins
BSTAR
0.00027719
Loading maneuver chart data...
Computing Atmospheric mass density...
Loading historical data...
Loading historical data...
Loading historical data...
Loading historical data...
Loading historical data...
Loading historical data...
Loading historical data...

Documentation

Showing up to 5 results
|